South Paris, Maine, United States (04281)
Lat: 44.22N, Lon: 70.51W
Wx Zone: MEZ012
Local Info
Past Weather Observations for Wednesday, August 27, 2014

NOTE: This archive is for the closest National Weather Service station to South Paris. Information may differ from the station used for current weather conditions.

Click here for Long-term Archive

Time Weather Temperature Dewpoint Humidity Pressure Winds Precip Visibility
23:55
Mostly Cloudy
66°F / 19°C 61°F / 16°C 83% 29.83 in
(1010 mb)
N 4.6 mph
(N 7 kph)
- 10SM
23:35
Overcast
68°F / 20°C 61°F / 16°C 78% 29.86 in
(1011 mb)
NNE 4.6 mph
(NNE 7 kph)
- 10SM
23:15
Overcast
68°F / 20°C 61°F / 16°C 78% 29.86 in
(1011 mb)
NNE 5.8 mph
(NNE 9 kph)
- 10SM
22:55
Overcast
70°F / 21°C 61°F / 16°C 73% 29.86 in
(1011 mb)
NNE 5.8 mph
(NNE 9 kph)
- 10SM
22:35
Overcast
70°F / 21°C 61°F / 16°C 73% 29.86 in
(1011 mb)
N 4.6 mph
(N 7 kph)
- 10SM
22:15
Overcast
73°F / 23°C 61°F / 16°C 65% 29.86 in
(1011 mb)
N 6.9 mph
(N 11 kph)
- 10SM
21:55
Overcast
73°F / 23°C 61°F / 16°C 65% 29.86 in
(1011 mb)
N 3.5 mph
(N 6 kph)
- 10SM
21:35
Overcast
73°F / 23°C 61°F / 16°C 65% 29.89 in
(1012 mb)
N 3.5 mph
(N 6 kph)
- 10SM
21:15
Overcast
73°F / 23°C 61°F / 16°C 65% 29.89 in
(1012 mb)
NNW 4.6 mph
(NNW 7 kph)
- 10SM
20:55
Overcast
73°F / 23°C 63°F / 17°C 69% 29.86 in
(1011 mb)
NNW 5.8 mph
(NNW 9 kph)
- 10SM
20:35
Overcast
75°F / 24°C 63°F / 17°C 65% 29.86 in
(1011 mb)
N 6.9 mph
(N 11 kph)
- 10SM
20:15
Overcast
75°F / 24°C 64°F / 18°C 69% 29.89 in
(1012 mb)
NW 4.6 mph
(NW 7 kph)
- 10SM
19:55
Overcast
73°F / 23°C 64°F / 18°C 74% 29.86 in
(1011 mb)
NNW 4.6 mph
(NNW 7 kph)
- 10SM
19:35
Overcast
73°F / 23°C 64°F / 18°C 74% 29.86 in
(1011 mb)
Calm - 10SM
19:15
Mostly Cloudy
73°F / 23°C 64°F / 18°C 74% 29.83 in
(1010 mb)
Calm - 10SM
18:55
Mostly Cloudy
75°F / 24°C 64°F / 18°C 69% 29.83 in
(1010 mb)
Calm - 10SM
18:35
Mostly Cloudy
77°F / 25°C 64°F / 18°C 65% 29.83 in
(1010 mb)
NNE 3.5 mph
(NNE 6 kph)
- 10SM
18:15
Partly Cloudy
79°F / 26°C 64°F / 18°C 61% 29.83 in
(1010 mb)
NNW 4.6 mph
(NNW 7 kph)
- 10SM
17:55
Clear
81°F / 27°C 66°F / 19°C 62% 29.83 in
(1010 mb)
NNW 5.8 mph
(NNW 9 kph)
- 10SM
17:35
Partly Cloudy
82°F / 28°C 66°F / 19°C 58% 29.83 in
(1010 mb)
NNW 5.8 mph
(NNW 9 kph)
- 10SM
17:15
Partly Cloudy
82°F / 28°C 68°F / 20°C 62% 29.83 in
(1010 mb)
NNW 5.8 mph
(NNW 9 kph)
- 10SM
16:55
Partly Cloudy
82°F / 28°C 66°F / 19°C 58% 29.83 in
(1010 mb)
NNW 5.8 mph
(NNW 9 kph)
- 10SM
16:35
Mostly Cloudy
82°F / 28°C 68°F / 20°C 62% 29.83 in
(1010 mb)
SSW 4.6 mph
(SSW 7 kph)
- 10SM
16:15
Partly Cloudy
84°F / 29°C 68°F / 20°C 58% 29.83 in
(1010 mb)
SW 4.6 mph
(SW 7 kph)
- 10SM
15:55
Mostly Cloudy
84°F / 29°C 68°F / 20°C 58% 29.83 in
(1010 mb)
SSW 6.9 mph
(SSW 11 kph)
- 10SM
15:35
Partly Cloudy
84°F / 29°C 66°F / 19°C 55% 29.83 in
(1010 mb)
SSW 5.8 mph
(SSW 9 kph)
- 10SM
15:15
Clear
84°F / 29°C 66°F / 19°C 55% 29.83 in
(1010 mb)
SSE 4.6 mph
(SSE 7 kph)
- 10SM
14:55
Partly Cloudy
84°F / 29°C 68°F / 20°C 58% 29.83 in
(1010 mb)
SW 6.9 mph
(SW 11 kph)
- 10SM
14:35
Mostly Cloudy
86°F / 30°C 68°F / 20°C 55% 29.83 in
(1010 mb)
SSW 6.9 mph
(SSW 11 kph)
- 10SM
14:15
Partly Cloudy
86°F / 30°C 68°F / 20°C 55% 29.83 in
(1010 mb)
SSW 10.4 mph
(SSW 17 kph)
- 10SM
13:55
Clear
86°F / 30°C 66°F / 19°C 52% 29.83 in
(1010 mb)
SSW 4.6 mph
(SSW 7 kph)
- 10SM
13:35
Partly Cloudy
84°F / 29°C 68°F / 20°C 58% 29.83 in
(1010 mb)
SSW 4.6 mph
(SSW 7 kph)
- 10SM
13:15
Mostly Cloudy
84°F / 29°C 70°F / 21°C 62% 29.86 in
(1011 mb)
SW 10.4 mph
(SW 17 kph)
- 10SM
12:55
Clear
84°F / 29°C 70°F / 21°C 62% 29.86 in
(1011 mb)
W 6.9 mph
(W 11 kph)
- 10SM
12:35
Clear
82°F / 28°C 68°F / 20°C 62% 29.86 in
(1011 mb)
W 4.6 mph
(W 7 kph)
- 10SM
12:15
Partly Cloudy
84°F / 29°C 68°F / 20°C 58% 29.86 in
(1011 mb)
NW 5.8 mph
(NW 9 kph)
- 10SM
11:55
Partly Cloudy
82°F / 28°C 68°F / 20°C 62% 29.86 in
(1011 mb)
SW 5.8 mph
(SW 9 kph)
- 10SM
11:35
Clear
82°F / 28°C 68°F / 20°C 62% 29.89 in
(1012 mb)
WNW 3.5 mph
(WNW 6 kph)
- 10SM
11:15
Clear
82°F / 28°C 68°F / 20°C 62% 29.89 in
(1012 mb)
SW 4.6 mph
(SW 7 kph)
- 10SM
10:55
Clear
82°F / 28°C 66°F / 19°C 58% 29.89 in
(1012 mb)
SW 3.5 mph
(SW 6 kph)
- 10SM
10:35
Clear
81°F / 27°C 66°F / 19°C 62% 29.89 in
(1012 mb)
W 3.5 mph
(W 6 kph)
- 10SM
10:15
Clear
81°F / 27°C 66°F / 19°C 62% 29.89 in
(1012 mb)
Calm - 10SM
09:55
Clear
79°F / 26°C 64°F / 18°C 61% 29.92 in
(1013 mb)
Calm - 10SM
09:35
Clear
79°F / 26°C 64°F / 18°C 61% 29.92 in
(1013 mb)
Calm - 10SM
09:15
Clear
77°F / 25°C 64°F / 18°C 65% 29.92 in
(1013 mb)
Calm - 10SM
08:55
Clear
77°F / 25°C 64°F / 18°C 65% 29.92 in
(1013 mb)
Calm - 10SM
08:35
Clear
75°F / 24°C 63°F / 17°C 65% 29.92 in
(1013 mb)
SSW 3.5 mph
(SSW 6 kph)
- 10SM
08:15
Clear
73°F / 23°C 64°F / 18°C 74% 29.92 in
(1013 mb)
W 3.5 mph
(W 6 kph)
- 10SM
07:55
Clear
72°F / 22°C 64°F / 18°C 78% 29.92 in
(1013 mb)
Calm - 10SM
07:35
Clear
70°F / 21°C 63°F / 17°C 78% 29.92 in
(1013 mb)
Calm - 10SM
07:15
Clear
68°F / 20°C 63°F / 17°C 83% 29.95 in
(1014 mb)
Calm - 10SM
06:55
Clear
66°F / 19°C 61°F / 16°C 83% 29.95 in
(1014 mb)
Calm - 10SM
06:35
Clear
64°F / 18°C 61°F / 16°C 88% 29.95 in
(1014 mb)
Calm - 10SM
06:15
Clear
63°F / 17°C 59°F / 15°C 88% 29.95 in
(1014 mb)
Calm - 10SM
05:55
Clear
59°F / 15°C 57°F / 14°C 94% 29.95 in
(1014 mb)
S 3.5 mph
(S 6 kph)
- 10SM
05:35
Clear
59°F / 15°C 55°F / 13°C 88% 29.95 in
(1014 mb)
Calm - 5SM
05:15
Clear
57°F / 14°C 54°F / 12°C 88% 29.95 in
(1014 mb)
Calm - 8SM
04:55
Clear
61°F / 16°C 57°F / 14°C 88% 29.95 in
(1014 mb)
Calm - 7SM
04:35
Clear
61°F / 16°C 55°F / 13°C 83% 29.95 in
(1014 mb)
Calm - 10SM
04:15
Clear
59°F / 15°C 55°F / 13°C 88% 29.95 in
(1014 mb)
Calm - 7SM
03:55
Clear
61°F / 16°C 55°F / 13°C 83% 29.95 in
(1014 mb)
Calm - 5SM
03:35
Clear
61°F / 16°C 57°F / 14°C 88% 29.95 in
(1014 mb)
Calm - 10SM
03:15
Clear
61°F / 16°C 57°F / 14°C 88% 29.95 in
(1014 mb)
Calm - 2 1/2SM
02:55
Clear
63°F / 17°C 59°F / 15°C 88% 29.95 in
(1014 mb)
Calm - 10SM
02:35
Clear
63°F / 17°C 59°F / 15°C 88% 29.95 in
(1014 mb)
Calm - 10SM
02:15
Clear
63°F / 17°C 59°F / 15°C 88% 29.95 in
(1014 mb)
Calm - 10SM
01:55
Clear
63°F / 17°C 59°F / 15°C 88% 29.95 in
(1014 mb)
S 3.5 mph
(S 6 kph)
- 10SM
01:35
Clear
63°F / 17°C 59°F / 15°C 88% 29.95 in
(1014 mb)
Calm - 10SM
01:15
Clear
64°F / 18°C 61°F / 16°C 88% 29.98 in
(1015 mb)
Calm - 10SM
00:55
Clear
64°F / 18°C 61°F / 16°C 88% 29.98 in
(1015 mb)
SSE 3.5 mph
(SSE 6 kph)
- 10SM
00:35
Clear
64°F / 18°C 61°F / 16°C 88% 29.98 in
(1015 mb)
SSE 4.6 mph
(SSE 7 kph)
- 10SM
00:15
Clear
64°F / 18°C 61°F / 16°C 88% 29.98 in
(1015 mb)
S 4.6 mph
(S 7 kph)
- 10SM
Time Weather Temperature Dewpoint Humidity Pressure Winds Precip Visibility


Weather for websites

WeatherForYou.com, LLC is not responsible for any damages or problems caused by this service. Current weather conditions are obtained from the closest station including government and personal stations which may have varying degrees of accuracy. Weather forecasts are derived from the NOAA NDFD. Like all things, this site belongs to Jesus Christ... He just trusts me to maintain it. If you have any questions or comments email webmaster@weatherforyou.com

Copyright © 2014, WeatherForYou.com LLC. All rights reserved.